Bettles, AK

5:41 AM AKDT on April 28, 2017 (GMT -0800)
Bettles

Weather History for PABT - March, 2013

Change the Weather History Date:

Saturday, March 9, 2013

  Actual Average Record
Temperature  
Mean Temperature 14 °F -  
Max Temperature 26 °F 11 °F 39 °F (1965)
Min Temperature 1 °F -8 °F -45 °F (1959)
Degree Days  
Heating Degree Days 52    
Moisture  
Dew Point 9 °F    
Average Humidity 74    
Maximum Humidity 96    
Minimum Humidity 36    
Precipitation  
Precipitation 0.02 in - - ()
Snow  
Snow 0.00 in - - ()
Snow Depth 17.00 in    
Sea Level Pressure  
Sea Level Pressure 29.85 in    
Wind  
Wind Speed 1 mph (North)    
Max Wind Speed 4 mph    
Max Gust Speed -    
Visibility 8 miles    
Events Fog , Snow    
Averages and records for this station are not official NWS values.
T = Trace of Precipitation, MM = Missing Value Source: NWS Daily Summary

Daily Weather History Graph

Daily Weather History Graph

Search for Another Location

Airport or City:

Trip Planner

Search our weather history database for the weather conditions in past years. The results will help you decide how hot, cold, wet, or windy it might be!

Date:

Astronomy

Mar. 09, 2013 Rise Set
Actual Time 7:48 AM AKST 6:46 PM AKST
Civil Twilight 6:55 AM AKST 7:39 PM AKST
Nautical Twilight 5:53 AM AKST 8:42 PM AKST
Astronomical Twilight 4:44 AM AKST 9:51 PM AKST
Moon 6:58 AM AKST (3/9) 4:29 PM AKST (3/9)
Length of Visible Light 12h 44m
Length of Day
10h 58m
Waning Crescent, 5% of the Moon is Illuminated
Mar 9
Waning Crescent
Mar 11
New
Mar 19
First Quarter
Mar 27
Full
Apr 2
Last Quarter

Hourly Weather History & Observations

Time (AKST) Temp. Windchill Dew Point Humidity Pressure Visibility Wind Dir Wind Speed Gust Speed Precip Events Conditions
12:53 AM 5.0 °F - 1.9 °F 87% 29.72 in 10.0 mi Calm Calm - N/A   Partly Cloudy
1:53 AM 6.1 °F - 3.0 °F 87% 29.73 in 10.0 mi Calm Calm - N/A   Partly Cloudy
2:53 AM 10.9 °F - 6.1 °F 81% 29.74 in 10.0 mi Calm Calm - N/A   Partly Cloudy
3:53 AM 10.0 °F - 7.0 °F 87% 29.76 in 10.0 mi Calm Calm - N/A   Partly Cloudy
4:53 AM 5.0 °F - 1.0 °F 84% 29.78 in 10.0 mi Calm Calm - N/A   Clear
5:53 AM 6.1 °F - 1.0 °F 80% 29.78 in 10.0 mi Calm Calm - N/A   Clear
6:53 AM 5.0 °F - 1.0 °F 84% 29.81 in 10.0 mi Calm Calm - N/A   Scattered Clouds
7:53 AM 3.0 °F -4.4 °F -0.0 °F 87% 29.82 in 10.0 mi North 3.5 mph - N/A   Scattered Clouds
8:53 AM 5.0 °F -2.1 °F 1.9 °F 87% 29.84 in 10.0 mi NNW 3.5 mph - N/A   Mostly Cloudy
9:53 AM 8.6 °F - 1.9 °F 74% 29.85 in 10.0 mi Calm Calm - N/A   Scattered Clouds
10:53 AM 13.1 °F 7.1 °F 3.0 °F 64% 29.85 in 10.0 mi NNW 3.5 mph - N/A   Partly Cloudy
11:53 AM 16.0 °F 10.4 °F 4.1 °F 60% 29.86 in 10.0 mi NNW 3.5 mph - N/A   Scattered Clouds
12:53 PM 16.0 °F 10.4 °F 4.1 °F 60% 29.87 in 10.0 mi North 3.5 mph - N/A   Scattered Clouds
1:53 PM 24.1 °F - 5.0 °F 44% 29.87 in 10.0 mi Calm Calm - N/A   Scattered Clouds
2:53 PM 25.0 °F - 9.0 °F 51% 29.85 in 10.0 mi Calm Calm - N/A   Overcast
3:53 PM 26.1 °F - 12.0 °F 55% 29.87 in 10.0 mi Calm Calm - N/A   Overcast
4:53 PM 26.1 °F - 13.1 °F 58% 29.88 in 10.0 mi Calm Calm - N/A   Overcast
5:53 PM 26.1 °F - 10.9 °F 53% 29.88 in 5.0 mi Calm Calm - N/A Fog , Snow Light Snow
6:34 PM 26.6 °F - 10.4 °F 51% 29.84 in 2.0 mi Calm Calm - N/A Fog , Snow Light Snow
6:53 PM 24.1 °F - 17.1 °F 75% 29.90 in 1.5 mi Calm Calm - N/A Fog , Snow Light Snow
7:11 PM 24.8 °F - 17.6 °F 74% 29.85 in 3.0 mi Calm Calm - N/A Fog Patches of Fog
7:53 PM 22.1 °F - 19.0 °F 88% 29.92 in 5.0 mi Calm Calm - N/A Snow Light Snow
8:53 PM 22.1 °F - 18.0 °F 84% 29.93 in 4.0 mi Calm Calm - N/A Snow Light Snow
9:53 PM 19.9 °F - 19.0 °F 96% 29.95 in 6.0 mi Calm Calm - N/A Snow Light Snow
10:53 PM 19.9 °F 14.9 °F 19.0 °F 96% 29.96 in 4.0 mi ESE 3.5 mph - N/A Snow Light Snow
11:53 PM 21.0 °F - 19.0 °F 92% 29.98 in 3.0 mi Calm Calm - N/A Snow Light Snow